Location: CCZU
(31.6840°N, 119.9550°E)
Time: 08:23:56
(UTC+08:00)

Tiangong 2 - Pass Details

Date: 04 May 2019
Orbit: 379 x 387 km, 42.8° (Epoch: 20 May)

Event Time Altitude Azimuth Distance (km) Brightness Sun altitude
Exits shadow 03:02:25 23° 81° (E) 863 3.4 -25.0°
Drops below altitude 10° 03:03:51 10° 69° (ENE) 1,400 4.8 -24.8°
Sets 03:05:58 0° 64° (ENE) 2,257 6.3 -24.4°
